Starlink 31344

operational
NORAD ID: 59171 Int'l Des: 2024-044 Owner: SPXS Country: US Constellation: starlink
LEOCIRCULAR

关于 Starlink 31344

正在加载描述...

实时位置

正在加载3D地球...

即将过境

高度历史

Altitude vs Time

uPlot chart will show altitude changes over time

两行轨道根数

1 59171U 24044V 25257.41571993 -.00000589 00000-0 -11868-4 0 9999
2 59171 43.0020 22.7890 0001220 265.0985 94.9728 15.27574785 86635
Epoch: Sep 14, 2025 • Age: 27 hours

当前状态

高度 487.0 km
速度 7.63 km/s
星下点 42.85°N, 92.06°W
发射日期 Mar 4, 2024
运行时间 1.5 years
类型 internet

技术详情

分类 Payload
质量 730.00 kg
干质量 700.00 kg
总质量 730.00 kg
长度 0.30 m
直径 4.10 m
跨度 29.00 m
形状 Box + pan
制造商 SPXS
平台类型 Starlink V2M
阶段状态 In Orbit
所有者/国家 SPXS/US

大型星座

Loading constellations...